Lubbock, TX

8:15 PM CST on February 25, 2018 (GMT -0600)
Lubbock International

Weather History for KLBB - July, 2012

Change the Weather History Date:

Tuesday, July 3, 2012

  Actual Average Record
Temperature  
Mean Temperature 83 °F 80 °F  
Max Temperature 94 °F 93 °F 108 °F (1983)
Min Temperature 72 °F 67 °F 54 °F (1924)
Degree Days  
Heating Degree Days 0 0  
Month to date heating degree days 0 0  
Since 1 June heating degree days 0 2  
Since 1 July heating degree days 0 0  
Cooling Degree Days 18 15  
Month to date cooling degree days 51 45  
Year to date cooling degree days 998 665  
Since 1 June cooling degree days 522 419  
Growing Degree Days 32 (Base 50)    
Moisture  
Dew Point 61 °F    
Average Humidity 50    
Maximum Humidity 68    
Minimum Humidity 32    
Precipitation  
Precipitation 0.00 in 0.08 in 3.27 in (2010)
Month to date precipitation 0.00 0.24  
Year to date precipitation 5.25 9.49  
Snow  
Snow 0.00 in 0.00 in 0.00 in (2002)
Month to date snowfall 0.0 0.0  
Since 1 June snowfall 0.0 0.0  
Since 1 July snowfall 0.0 0.0  
Snow Depth 0.00 in    
Sea Level Pressure  
Sea Level Pressure 29.85 in    
Wind  
Wind Speed 15 mph (SSE)    
Max Wind Speed 24 mph    
Max Gust Speed 37 mph    
Visibility 9 miles    
Events      
T = Trace of Precipitation, MM = Missing Value Source: NWS Daily Summary

Daily Weather History Graph

Daily Weather History Graph

Search for Another Location

Airport or City:

Trip Planner

Search our weather history database for the weather conditions in past years. The results will help you decide how hot, cold, wet, or windy it might be!

Date:

Astronomy

Jul. 03, 2012 Rise Set
Actual Time 6:41 AM CDT 9:01 PM CDT
Civil Twilight 6:12 AM CDT 9:30 PM CDT
Nautical Twilight 5:37 AM CDT 10:05 PM CDT
Astronomical Twilight 4:58 AM CDT 10:44 PM CDT
Moon 9:01 PM CDT (7/3) 6:35 AM CDT (7/3)
Length of Visible Light 15h 17m
Length of Day
14h 19m
Full, 100% of the Moon is Illuminated
Jul 3
Full
Jul 3
Full
Jul 10
Last Quarter
Jul 18
New
Jul 26
First Quarter

Hourly Weather History & Observations

Time (CDT) Temp. Heat Index Dew Point Humidity Pressure Visibility Wind Dir Wind Speed Gust Speed Precip Events Conditions
12:53 AM 79.0 °F - 61.0 °F 54% 29.89 in 10.0 mi SSE 12.7 mph - N/A   Overcast
1:53 AM 78.1 °F - 61.0 °F 56% 29.86 in 10.0 mi SSE 10.4 mph - N/A   Mostly Cloudy
2:53 AM 77.0 °F - 60.1 °F 56% 29.86 in 10.0 mi SSE 12.7 mph - N/A   Scattered Clouds
3:53 AM 75.9 °F - 59.0 °F 56% 29.86 in 10.0 mi SSE 11.5 mph - N/A   Partly Cloudy
4:53 AM 75.0 °F - 59.0 °F 57% 29.87 in 10.0 mi South 10.4 mph 19.6 mph N/A   Partly Cloudy
5:53 AM 73.0 °F - 60.1 °F 64% 29.88 in 10.0 mi SSE 12.7 mph - N/A   Partly Cloudy
6:53 AM 72.0 °F - 61.0 °F 68% 29.89 in 8.0 mi SSE 12.7 mph - N/A   Scattered Clouds
7:53 AM 75.0 °F - 62.1 °F 64% 29.89 in 7.0 mi South 15.0 mph 21.9 mph N/A   Partly Cloudy
8:53 AM 77.0 °F - 64.0 °F 64% 29.89 in 10.0 mi South 16.1 mph 28.8 mph N/A   Scattered Clouds
9:03 AM 77.0 °F - 64.4 °F 65% 30.05 in 10.0 mi South 19.6 mph 26.5 mph N/A   Mostly Cloudy
9:53 AM 77.0 °F - 64.0 °F 64% 29.90 in 10.0 mi South 19.6 mph 25.3 mph N/A   Mostly Cloudy
10:23 AM 78.8 °F - 64.4 °F 61% 30.05 in 10.0 mi South 19.6 mph 25.3 mph N/A   Mostly Cloudy
10:53 AM 81.0 °F 82.7 °F 64.9 °F 58% 29.88 in 8.0 mi South 15.0 mph 24.2 mph N/A   Mostly Cloudy
11:53 AM 82.9 °F 84.4 °F 64.0 °F 53% 29.88 in 7.0 mi South 16.1 mph 21.9 mph N/A   Mostly Cloudy
12:53 PM 84.9 °F 85.9 °F 63.0 °F 48% 29.86 in 7.0 mi South 15.0 mph - N/A   Mostly Cloudy
1:53 PM 89.1 °F 90.0 °F 63.0 °F 42% 29.85 in 7.0 mi South 16.1 mph 23.0 mph N/A   Mostly Cloudy
2:53 PM 90.0 °F 90.3 °F 62.1 °F 39% 29.82 in 10.0 mi SSE 18.4 mph 26.5 mph N/A   Mostly Cloudy
3:53 PM 91.0 °F 90.9 °F 61.0 °F 36% 29.80 in 9.0 mi South 13.8 mph 24.2 mph N/A   Mostly Cloudy
4:48 PM 91.4 °F 91.4 °F 60.8 °F 36% 29.94 in 9.0 mi South 18.4 mph 27.6 mph N/A   Mostly Cloudy
4:53 PM 91.9 °F 91.5 °F 60.1 °F 34% 29.76 in 9.0 mi South 18.4 mph 27.6 mph N/A   Mostly Cloudy
5:53 PM 91.9 °F 91.2 °F 59.0 °F 33% 29.75 in 9.0 mi SSE 18.4 mph 36.8 mph N/A   Mostly Cloudy
6:53 PM 91.9 °F 90.8 °F 57.9 °F 32% 29.73 in 9.0 mi South 18.4 mph - N/A   Scattered Clouds
7:53 PM 90.0 °F 88.6 °F 57.0 °F 33% 29.72 in 10.0 mi South 20.7 mph 29.9 mph N/A   Partly Cloudy
8:53 PM 88.0 °F 86.7 °F 57.0 °F 35% 29.74 in 10.0 mi South 18.4 mph 26.5 mph N/A   Mostly Cloudy
9:53 PM 86.0 °F 84.7 °F 55.9 °F 36% 29.76 in 10.0 mi South 13.8 mph - N/A   Mostly Cloudy
10:53 PM 84.0 °F 83.3 °F 57.0 °F 40% 29.78 in 10.0 mi SSE 12.7 mph - N/A   Mostly Cloudy
11:53 PM 82.9 °F 82.4 °F 57.0 °F 41% 29.80 in 10.0 mi South 15.0 mph - N/A   Partly Cloudy